Find Starlink 5998

NORAD ID: 56468 Int'l Des: 2023-064 Owner: SPXS Country: US Constellation: starlink operational
LEOCIRCULAR

Current View

Loading 3D Globe...

About Starlink 5998

Starlink 5998 (NORAD 56468) is a starlink constellation satellite (v1.5) launched May 10, 2023 by SPXS of US. It operates in LEO, CIRCULAR orbit with a mass of 305.00 kg.

About Starlink 5998

Description loading...

Upcoming Passes

Passes for default location (London). Set your location on the main map for personalized predictions.

Altitude History

Loading altitude history...

Two-Line Element Set

1 56468U 23064W 26171.45371286 .00000078 00000-0 14334-4 0 9991
2 56468 69.9988 245.1634 0003532 267.9187 92.1567 14.98331195170640
Epoch: Jun 20, 2026 • Age: 14 hours

Current Status

Altitude 590.0 km
Velocity 7.57 km/s
Sub-Earth Point -53.21°S, 171.91°E
Launch Date May 10, 2023
Age 3.1 years
Type internet

Technical Details

Classification Payload
Mass 305.00 kg
Dry Mass 290.00 kg
Total Mass 305.00 kg
Length 0.20 m
Diameter 2.80 m
Span 9.00 m
Shape Box + pan
Manufacturer SPXS
Bus Type Starlink
Phase Status In Orbit
Owner/State SPXS/US

Most Searched